Vigo, Spain

4:10 AM CET on December 13, 2017 (GMT +0100)
Vigo

Weather History for LEVX - March, 2013

Change the Weather History Date:

Monday, March 4, 2013

  Actual Average Record
Temperature  
Mean Temperature 56 °F -  
Max Temperature 58 °F 59 °F 66 °F (1997)
Min Temperature 53 °F 44 °F 30 °F (2005)
Degree Days  
Heating Degree Days 10    
Growing Degree Days 6 (Base 50)    
Moisture  
Dew Point 39 °F    
Average Humidity 55    
Maximum Humidity 67    
Minimum Humidity 40    
Precipitation  
Precipitation 0.02 in 0.24 in - ()
Sea Level Pressure  
Sea Level Pressure 29.38 in    
Wind  
Wind Speed 9 mph ()    
Max Wind Speed 23 mph    
Max Gust Speed 45 mph    
Visibility 6.8 miles    
Events Rain    
Averages and records for this station are not official NWS values.
T = Trace of Precipitation, MM = Missing Value Source: Averaged Metar Reports

Daily Weather History Graph

Daily Weather History Graph

Search for Another Location

Airport or City:

Trip Planner

Search our weather history database for the weather conditions in past years. The results will help you decide how hot, cold, wet, or windy it might be!

Date:

Astronomy

Mar. 04, 2013 Rise Set
Actual Time 8:04 AM CET 7:28 PM CET
Civil Twilight 7:36 AM CET 7:56 PM CET
Nautical Twilight 7:04 AM CET 8:28 PM CET
Astronomical Twilight 6:31 AM CET 9:01 PM CET
Moon 2:04 AM CET (3/4) 11:53 AM CET (3/4)
Length of Visible Light 12h 19m
Length of Day
11h 23m
Waning Gibbous, 55% of the Moon is Illuminated
Mar 4
Waning Gibbous
Mar 4
Last Quarter
Mar 11
New
Mar 19
First Quarter
Mar 27
Full

Hourly Weather History & Observations

Time (CET) Temp. Dew Point Humidity Pressure Visibility Wind Dir Wind Speed Gust Speed Precip Events Conditions
12:00 AM 53.6 °F 39.2 °F 58% 29.65 in 6.2 mi Variable 2.3 mph - N/A   Mostly Cloudy
1:00 AM 54 °F 40 °F 48% 29.63 in 12 mi South 4.6 mph - -   Partly Cloudy
1:00 AM 53.6 °F 39.2 °F 58% 29.62 in 6.2 mi Variable 3.5 mph - N/A   Scattered Clouds
1:30 AM 53.6 °F 39.2 °F 58% 29.62 in 6.2 mi Variable 3.5 mph - N/A   Scattered Clouds
2:00 AM 53.6 °F 39.2 °F 58% 29.59 in 6.2 mi Variable 3.5 mph - N/A   Mostly Cloudy
2:30 AM 53.6 °F 39.2 °F 58% 29.59 in 6.2 mi Variable 3.5 mph - N/A   Mostly Cloudy
3:00 AM 53.6 °F 39.2 °F 58% 29.59 in 6.2 mi Variable 3.5 mph - N/A   Mostly Cloudy
3:30 AM 51.8 °F 39.2 °F 62% 29.56 in 6.2 mi Variable 3.5 mph - N/A   Mostly Cloudy
4:00 AM 51.8 °F 39.2 °F 62% 29.56 in 6.2 mi Variable 3.5 mph - N/A   Mostly Cloudy
4:30 AM 53.6 °F 39.2 °F 58% 29.56 in 6.2 mi Variable 3.5 mph - N/A   Mostly Cloudy
5:00 AM 53.6 °F 41.0 °F 62% 29.50 in 6.2 mi ESE 6.9 mph - N/A   Scattered Clouds
5:30 AM 53.6 °F 41.0 °F 62% 29.50 in 6.2 mi East 6.9 mph - N/A   Scattered Clouds
6:00 AM 53.6 °F 41.0 °F 62% 29.47 in 6.2 mi East 5.8 mph - N/A   Partly Cloudy
6:30 AM 53.6 °F 41.0 °F 62% 29.47 in 6.2 mi East 4.6 mph - N/A   Partly Cloudy
7:00 AM 55 °F 39 °F 43% 29.46 in 12 mi East 12.7 mph - -   Scattered Clouds
7:00 AM 53.6 °F 41.0 °F 62% 29.44 in 6.2 mi ESE 10.4 mph - N/A   Partly Cloudy
7:30 AM 53.6 °F 37.4 °F 54% 29.44 in 6.2 mi East 12.7 mph 24.2 mph N/A   Partly Cloudy
8:00 AM 53.6 °F 37.4 °F 54% 29.42 in 6.2 mi East 11.5 mph 26.5 mph N/A   Partly Cloudy
8:30 AM 53.6 °F 37.4 °F 54% 29.42 in 6.2 mi ENE 6.9 mph 18.4 mph N/A   Partly Cloudy
9:30 AM 53.6 °F 37.4 °F 54% 29.39 in 6.2 mi East 5.8 mph - N/A   Partly Cloudy
10:00 AM 55.4 °F 37.4 °F 51% 29.39 in 6.2 mi East 13.8 mph - N/A   Partly Cloudy
10:30 AM 55.4 °F 37.4 °F 51% 29.39 in 6.2 mi East 16.1 mph 34.5 mph N/A   Partly Cloudy
11:00 AM 55.4 °F 37.4 °F 51% 29.39 in 6.2 mi ESE 21.9 mph 36.8 mph N/A   Partly Cloudy
11:30 AM 55.4 °F 37.4 °F 51% 29.39 in 6.2 mi ESE 17.3 mph 29.9 mph N/A   Partly Cloudy
12:00 PM 55.4 °F 37.4 °F 51% 29.39 in 6.2 mi ESE 19.6 mph 34.5 mph N/A   Partly Cloudy
12:30 PM 55.4 °F 37.4 °F 51% 29.36 in 6.2 mi ESE 15.0 mph 27.6 mph N/A   Partly Cloudy
1:00 PM 56 °F 39 °F 40% 29.35 in 19 mi East 20.7 mph - -   Overcast
1:00 PM 55.4 °F 37.4 °F 51% 29.36 in 6.2 mi ESE 18.4 mph 38.0 mph N/A   Partly Cloudy
1:30 PM 55.4 °F 37.4 °F 51% 29.33 in 6.2 mi East 21.9 mph 44.9 mph N/A   Partly Cloudy
2:00 PM 57.2 °F 37.4 °F 48% 29.30 in 6.2 mi ESE 17.3 mph 31.1 mph N/A   Partly Cloudy
2:30 PM 57.2 °F 37.4 °F 48% 29.27 in 6.2 mi East 12.7 mph 24.2 mph N/A   Partly Cloudy
3:00 PM 57.2 °F 37.4 °F 48% 29.27 in 6.2 mi ESE 15.0 mph 29.9 mph N/A   Partly Cloudy
3:30 PM 57.2 °F 37.4 °F 48% 29.27 in 6.2 mi ESE 12.7 mph 27.6 mph N/A   Partly Cloudy
4:00 PM 57.2 °F 37.4 °F 48% 29.27 in 6.2 mi East 23.0 mph 39.1 mph N/A   Partly Cloudy
4:30 PM 57.2 °F 37.4 °F 48% 29.24 in 6.2 mi East 16.1 mph 31.1 mph N/A   Partly Cloudy
5:00 PM 57.2 °F 37.4 °F 48% 29.24 in 6.2 mi ESE 21.9 mph 34.5 mph N/A   Partly Cloudy
5:30 PM 57.2 °F 37.4 °F 48% 29.24 in 6.2 mi East 16.1 mph 28.8 mph N/A   Partly Cloudy
6:00 PM 57.2 °F 37.4 °F 48% 29.24 in 6.2 mi ESE 8.1 mph 23.0 mph N/A   Partly Cloudy
6:30 PM 57.2 °F 37.4 °F 48% 29.24 in 6.2 mi ESE 13.8 mph 26.5 mph N/A   Partly Cloudy
7:00 PM 57 °F 40 °F 43% 29.24 in 12 mi East 16.1 mph - -   Overcast
7:00 PM 57.2 °F 41.0 °F 55% 29.24 in 6.2 mi East 15.0 mph 27.6 mph N/A   Mostly Cloudy
7:30 PM 57.2 °F 41.0 °F 55% 29.24 in 6.2 mi East 15.0 mph 27.6 mph N/A Rain Light Rain
8:00 PM 55.4 °F 41.0 °F 58% 29.24 in 6.2 mi East 13.8 mph 28.8 mph N/A Rain Light Rain
8:30 PM 53.6 °F 41.0 °F 62% 29.24 in 6.2 mi East 16.1 mph 27.6 mph N/A Rain Light Rain
9:00 PM 53.6 °F 41.0 °F 62% 29.24 in 6.2 mi ESE 12.7 mph 25.3 mph N/A Rain Light Rain
9:30 PM 53.6 °F 42.8 °F 67% 29.24 in 6.2 mi Variable 9.2 mph 24.2 mph N/A   Mostly Cloudy
10:00 PM 55.4 °F 42.8 °F 63% 29.24 in 6.2 mi ESE 11.5 mph 25.3 mph N/A   Mostly Cloudy
10:30 PM 55.4 °F 42.8 °F 63% 29.24 in 6.2 mi ESE 11.5 mph 27.6 mph N/A   Mostly Cloudy
11:00 PM 55.4 °F 42.8 °F 63% 29.24 in 6.2 mi SE 11.5 mph 23.0 mph N/A   Mostly Cloudy
11:30 PM 55.4 °F 42.8 °F 63% 29.24 in 6.2 mi Variable 6.9 mph - N/A   Mostly Cloudy